Tracking 31027 objects as of 19-Jul-2025
HD Live streaming from Space Station
objects crossing your sky now

COSMOS 886 DEB

Track COSMOS 886 DEB now!
10-day predictions


NORAD ID: 19475
Int'l Code: 1976-126CD
Perigee: 599.7 km
Apogee: 1,811.7 km
Inclination: 65.9 °
Period: 109.4 minutes
Semi major axis: 7576 km
RCS: 0.0088 m2 (small)
Launch date: December 27, 1976
Source: Commonwealth of Independent States (former USSR) (CIS)
Launch site: TYURATAM MISSILE AND SPACE COMPLEX (TTMTR)

Note: This is SATELLITE DEBRIS
Your satellite tracking list
STARLINK-6351
Track 1 satellite(s)




NASA's NSSDC Master Catalog

Two Line Element Set (TLE):
1 19475U 76126CD  25198.53435658  .00000614  00000-0  33517-3 0  9995
2 19475  65.8543  22.1311 0799835  12.5939 349.3840 13.16393555665536
Source of the keplerian elements: AFSPC